Weather Roundup
Issued by NWS

Home | Current Version | Previous Version | Graphics & Text | Print | Product List | Glossary Off
Versions: 1 2 3 4 5 6 7 8 9 10 11 12 13 14 15 16 17 18 19 20 21 22 23 24 25 26 27 28 29 30 31 32 33 34 35 36 37 38 39 40 41 42 43 44 45 46 47 48 49 50

000
NZUS93 KARX 241110
HRRWXR

CURRENT HOURLY OBSERVATIONS ACROSS
MUCH OF THE UPPER MISSISSIPPI VALLEY
NATIONAL WEATHER SERVICE LA CROSSE WI
600 AM CDT THU JUL 24 2014


...SOUTHEAST MINNESOTA...


CITY           SKY/WX    TMP DP  RH WIND       PRES   REMARKS
ROCHESTER      CLEAR     58  53  84 E3        30.19S
ROCHESTER/MAYO FAIR      58  54  85 CALM      30.18S
WINONA         PTCLDY    55  55 100 CALM      30.18S
AUSTIN         CLEAR     55  54  94 CALM      30.17S
ALBERT LEA     CLEAR     55  54  94 CALM      30.17S
DODGE CENTER   PTCLDY    55  52  88 CALM      30.18S
PRESTON        CLEAR     55  55 100 CALM      30.19S
OWATONNA       CLEAR     55  52  88 SE3       30.17S
FARIBAULT      CLEAR     54  48  82 CALM      30.17F
$$

...ELSEWHERE IN MINNESOTA...


CITY           SKY/WX    TMP DP  RH WIND       PRES   REMARKS
MINNEAPOLIS    PTCLDY    63  57  81 CALM      30.16S
INTNL FALLS    PTCLDY    47  45  93 CALM      30.17S
DULUTH         MOCLDY    56  51  84 CALM      30.19S
RED WING       CLEAR     54  52  94 CALM      30.16S
REDWOOD FALLS  CLEAR     58  56  93 E3        30.14F
MANKATO        CLEAR     57  52  82 SE5       30.15F
WORTHINGTON    CLEAR     55  52  88 SE3       30.16F
FAIRMONT       CLEAR     55  50  82 CALM      30.15F
$$

...SOUTHWEST WISCONSIN...


CITY           SKY/WX    TMP DP  RH WIND       PRES   REMARKS
LA CROSSE      PTCLDY    60  57  89 E5        30.18R
PRAIRIE DU CHI CLEAR     58  53  83 CALM      30.18R
BOSCOBEL       FOG       52  51  97 CALM      30.20R VSB 3/4
LONE ROCK      MOCLDY    58  53  84 CALM      30.20R
PLATTEVILLE    CLEAR     54  52  92 NE3       30.20S
FORT MC COY    CLEAR     48  47  97 CALM      30.20S
CAMP DOUGLAS   FOG       52  52 100 CALM      30.20S VSB 1
VIROQUA        FAIR      55  55  99 CALM      30.20S
WIS DELLS      CLEAR     51  47  86 CALM      30.19F
$$

...ELSEWHERE IN WISCONSIN...


CITY           SKY/WX    TMP DP  RH WIND       PRES   REMARKS
MILWAUKEE      CLEAR     55  49  80 NW3       30.18R
MADISON        PTCLDY    52  50  93 CALM      30.19S
GREEN BAY      CLEAR     52  50  93 CALM      30.20S
EAU CLAIRE     MOCLDY    54  54 100 NE3       30.18S
BLACK RVR FLS  FOG       47  47 100 CALM      30.19R VSB<1/4
MEDFORD        MOCLDY    50  49  95 CALM      30.21R
WAUSAU         PTCLDY    52  51  97 E5        30.20S
WIS RAPIDS     CLEAR     52  50  93 CALM      30.22S
MARSHFIELD     CLEAR     54  51  90 S5        30.20S
RICE LAKE      CLOUDY    55  53  92 CALM      30.20F
$$

...NORTHEAST IOWA...


CITY           SKY/WX    TMP DP  RH WIND       PRES   REMARKS
WATERLOO       CLOUDY    54  53  97 CALM      30.16S FOG
DUBUQUE        MOCLDY    55  51  86 CALM      30.19S
DECORAH        CLEAR     57  55  94 SE3       30.17S
MASON CITY     CLEAR     51  51 100 CALM      30.19S
CHARLES CITY   CLEAR     55  54  94 N5        30.18S
OELWEIN        CLEAR     57  55  94 E5        30.19R
$$

...ELSEWHERE IN IOWA...


CITY           SKY/WX    TMP DP  RH WIND       PRES   REMARKS
DES MOINES     CLEAR     64  58  80 CALM      30.15R
IOWA CITY      CLEAR     59  56  89 E3        30.18R
FORT DODGE     CLEAR     57  55  94 CALM      30.16F
MARSHALLTOWN   CLEAR     59  56  89 CALM      30.16S
CEDAR RAPIDS   CLEAR     58  56  93 E6        30.16S
$$

...NORTHERN ILLINOIS...


CITY           SKY/WX    TMP DP  RH WIND       PRES   REMARKS
CHICAGO-OHARE  PTCLDY    57  50  77 N7        30.16R
DUPAGE         CLEAR     52  49  89 N5        30.16R
CHICAGO-MIDWAY CLEAR     61  55  81 N8        30.15R
MOLINE         PTCLDY    57  54  89 CALM      30.17R
ROCKFORD       PTCLDY    55  49  80 N6        30.21S
STERLING       CLEAR     54  48  82 CALM      30.18S
PEORIA         CLEAR     58  50  75 N5        30.16R
$$

NOTE: "FAIR" INDICATES FEW OR NO CLOUDS BELOW 12,000 FEET WITH NO
SIGNIFICANT WEATHER AND/OR OBSTRUCTIONS TO VISIBILITY. WIND
SPEEDS ARE IN MILES-PER-HOUR.



USA.gov is the U.S. government's official web portal to all federal, state and local government web resources and services.